sat.trackr.live / text

‹ back to catalog

STARLINK-34436

NORAD 64358 · 2025-126Q

PAYLOAD ACTIVE UNKNOWN

§ Identity

Operator
Country
US
Launch date
2025-06-13
Launch site
AFWTR
Launch vehicle
Mass (kg)
RCS (m²)

Purposes: comms

External: N2YO · Heavens-Above · Gunter

§ Orbital elements

Epoch: 2026-09-20T09:20:43.648512Z

Period
94.14 min
Inclination
70.0005°
Eccentricity
0.0003356
Mean motion
15.29559781 rev/d
Perigee alt
474.8 km
Apogee alt
479.4 km
Semi-major
6,855.3 km
B*
3.5132e-4
RAAN
261.2442°
Arg perigee
265.4845°
Mean anomaly
94.5947°
Rev number
6,990

§ Raw data

STARLINK-344361 64358U 25126Q   26263.38939408  .00009979  00000+0  35132-3 0  99952 64358  70.0005 261.2442 0003356 265.4845  94.5947 15.29559781 69906

JSON: /api/v1/satellites/64358 · /tle

For live sub-satellite position, see the globe view (requires WebGL).

§ Visibility from observer

Set your observer location to see the next 7 days of passes ≥ 10°. The values pass through the URL so the page stays shareable.

No JS? Fill the form by hand. The geolocation button needs JavaScript.